CAPE
0 0 0 1 2 1 0 0 0 0 0 0 0 0 0 0 0 0 1 2 2 20 18 14 12 4 6 4 4 3 7 21 22 0 1 0 0 0 0 0 0 0 0
0 0 0 2 2 1 0 0 1 0 0 0 0 0 0 0 0 0 0 0 0 1 2 1 1 1 0 0 1 0 3 6 4 4 0 0 0 0 0 0 0 0 0
0 0 0 0 0 0 3 8 5 0 0 0 0 0 0 0 0 0 0 0 0 0 0 0 0 0 0 0 0 0 0 0 0 5 0 3 1 0 0 0 0 0 0
0 0 0 0 0 0 0 0 1 1 1 1 0 0 0 0 0 0 0 0 0 0 0 0 0 0 0 0 0 0 0 0 0 0 1 1 1 0 0 0 0 0 0
0 0 0 0 0 0 0 0 0 0 0 0 0 0 0 0 0 0 0 0 0 0 0 0 0 0 0 0 0 0 0 0 0 0 0 4 1 0 0 0 0 0 0
0 0 0 0 0 0 0 0 0 0 0 0 0 0 0 0 0 0 0 0 0 0 0 0 0 0 0 0 0 0 0 0 0 0 0 6 2 0 0 0 0 0 0
0 0 0 0 0 10 0 0 0 0 0 0 0 0 0 0 0 0 0 0 0 0 0 0 0 0 0 0 0 0 0 1 0 0 0 0 0 0 0 0 0 0 0
1 1 1 1 0 0 0 2 5 3 0 0 0 0 0 0 0 0 0 0 0 0 0 0 0 0 0 0 0 1 0 0 0 0 0 1 0 0 0 0 0 0 0
1 2 1 1 1 1 1 1 2 10 1 0 0 1 1 10 0 0 0 0 0 0 0 0 0 0 0 0 0 0 0 0 1 1 2 1 1 0 0 0 0 0 0
2 1 1 1 1 3 4 2 2 3 4 16 0 0 0 0 0 0 0 0 0 0 0 1 1 0 0 0 0 0 0 0 0 0 0 0 0 0 0 0 0 0 0
0 1 0 0 0 1 4 5 4 2 1 0 0 0 1 2 1 0 0 0 0 0 0 1 0 1 0 0 0 0 1 0 0 0 0 1 1 0 0 0 0 0 0
1 1 1 0 0 0 1 2 2 1 0 0 0 1 3 2 2 2 0 1 1 0 0 0 0 0 1 1 0 2 2 0 0 0 0 0 0 0 0 0 0 0 0
1 1 1 1 1 1 2 1 1 1 0 0 0 1 1 4 3 2 2 2 1 2 0 3 7 7 5 2 4 2 0 0 0 0 0 0 0 1 2 2 2 2 2
1 2 2 2 1 0 2 1 2 1 1 1 1 1 3 0 1 5 1 0 1 0 0 0 0 0 0 0 0 0 0 0 0 0 0 0 0 0 1 2 1 0 0
1 1 2 2 1 0 1 3 3 3 3 2 1 0 0 4 3 2 1 0 0 0 0 0 0 0 0 0 0 0 0 0 0 0 0 0 0 1 2 2 0 0 0
2 3 2 3 1 0 0 0 6 5 8 7 9 0 3 9 10 10 9 9 7 2 0 0 0 0 0 0 0 0 0 0 0 0 0 0 0 1 1 0 0 0 0
3 3 2 1 1 0 0 0 0 0 1 7 7 10 12 11 10 9 7 7 7 0 0 0 0 0 0 0 0 0 0 0 0 0 0 0 0 0 0 1 0 0 0
0 0 1 0 0 0 0 0 0 0 0 0 3 6 9 7 7 7 6 0 0 0 0 0 0 0 0 0 0 0 0 0 0 0 0 0 0 0 0 0 0 0 0
0 0 0 0 0 0 0 0 0 0 0 0 0 0 0 6 5 6 3 0 0 0 0 0 0 0 0 0 0 0 0 0 0 0 0 0 0 0 0 0 0 0 0
0 0 0 0 0 0 0 0 0 0 0 0 0 0 0 0 0 0 0 0 0 0 0 0 0 0 0 0 0 0 0 0 0 0 0 0 0 0 0 0 0 0 0
0 0 0 0 0 0 0 0 0 0 0 0 0 0 0 0 0 0 0 0 0 0 0 0 0 0 0 0 0 0 0 0 0 0 0 0 0 0 0 0 0 0 0
0 0 0 0 0 0 0 0 0 0 0 0 0 0 0 0 0 0 0 0 0 0 0 0 0 0 0 0 0 0 0 0 0 0 0 0 0 0 0 0 0 0 0
0 0 0 0 0 0 0 0 0 0 0 0 0 0 0 0 0 0 0 0 0 0 0 0 0 0 0 0 0 0 0 0 0 0 0 0 0 0 0 0 0 0 0
0 0 0 0 0 0 0 0 0 0 0 0 0 0 0 0 0 0 0 0 0 0 0 0 0 0 0 0 0 0 0 0 0 0 0 0 0 0 0 0 0 0 0
0 0 0 0 0 0 0 0 0 0 0 0 0 0 0 0 0 0 0 0 0 0 0 0 0 0 0 0 0 0 0 0 0 0 0 0 0 0 0 0 0 0 0
0 0 0 0 0 0 0 0 0 0 0 0 0 0 0 0 0 0 0 0 0 0 0 0 0 0 0 0 0 0 0 0 0 0 0 0 0 0 0 0 0 0 0
CIN
-0 -0 -1 -4 -3 -11 -4 -0 -9 -0 -0 -0 -0 -0 -0 -0 -0 -0 -30 -110 -142 -94 -121 -128 -120 -144 -137 -142 -119 -121 -113 -87 -34 -5 -101 -59 -0 -0 -0 -0 -0 -0 -0
-0 -0 -0 -5 -2 -1 -0 -17 -28 -26 -0 -0 -0 -0 -0 -0 -0 -0 -0 -0 -0 -86 -112 -115 -142 -149 -139 -8 -79 -7 -134 -136 -95 -68 -4 -0 -0 -0 -0 -0 -0 -0 -0
-0 -0 -0 -1 -0 -0 -2 -5 -12 -18 -21 -0 -0 -0 -0 -0 -0 -0 -0 -0 -0 -0 -0 -0 -0 -0 -109 -0 -12 -0 -0 -0 -0 -76 -73 -110 -85 -0 -0 -0 -0 -0 -0
-0 -0 -0 -0 -0 -0 -0 -0 -8 -20 -18 -22 -0 -0 -0 -0 -0 -0 -0 -0 -0 -0 -0 -0 -0 -0 -0 -0 -0 -0 -0 -0 -0 -0 -70 -60 -18 -0 -0 -0 -0 -0 -0
-0 -0 -0 -0 -0 -0 -0 -0 -0 -0 -0 -0 -7 -0 -0 -0 -0 -0 -0 -0 -0 -0 -0 -0 -0 -0 -0 -0 -0 -0 -0 -0 -0 -0 -0 -5 -1 -0 -0 -0 -0 -0 -0
-0 -0 -0 -0 -0 -0 -0 -0 -0 -0 -0 -0 -0 -0 -0 -0 -0 -0 -0 -0 -0 -0 -0 -0 -0 -0 -0 -0 -0 -0 -0 -0 -0 -0 -0 -2 -3 -0 -0 -0 -0 -0 -0
-0 -0 -0 -0 -0 -276 -81 -0 -0 -0 -0 -0 -0 -0 -0 -0 -0 -0 -0 -0 -0 -0 -0 -0 -0 -0 -0 -0 -0 -0 -0 -0 -0 -0 -1 -3 -0 -0 -0 -0 -0 -0 -0
-0 -0 -0 -0 -0 -0 -0 -113 -325 -334 -0 -0 -0 -0 -0 -0 -0 -0 -0 -0 -0 -0 -0 -0 -0 -0 -0 -0 -0 -0 -0 -0 -0 -0 -0 -0 -0 -0 -0 -0 -0 -0 -0
-0 -0 -0 -0 -0 -0 -0 -0 -0 -198 -215 -0 -0 -123 -282 -339 -0 -0 -0 -0 -0 -0 -0 -0 -0 -0 -0 -0 -0 -0 -0 -0 -0 -0 -0 -0 -0 -0 -0 -0 -0 -0 -0
-0 -0 -0 -0 -0 -0 -0 -0 -0 -0 -160 -223 -16 -0 -0 -0 -0 -0 -0 -0 -0 -0 -0 -0 -0 -0 -0 -0 -0 -0 -0 -0 -0 -0 -0 -0 -0 -0 -0 -0 -0 -0 -0
-0 -0 -0 -0 -0 -0 -0 -0 -0 -0 -0 -0 -0 -0 -0 -0 -0 -0 -0 -0 -0 -0 -0 -0 -0 -0 -0 -0 -0 -0 -0 -0 -0 -0 -0 -0 -0 -0 -0 -0 -0 -0 -0
-0 -0 -0 -0 -0 -0 -0 -0 -0 -0 -0 -0 -0 -0 -0 -0 -0 -0 -0 -0 -0 -0 -0 -0 -0 -0 -0 -0 -0 -0 -0 -0 -0 -0 -0 -0 -0 -0 -0 -0 -0 -0 -0
-0 -0 -0 -0 -0 -0 -0 -0 -0 -0 -0 -0 -0 -0 -0 -0 -0 -0 -0 -0 -0 -0 -0 -0 -0 -0 -0 -0 -0 -0 -0 -0 -0 -0 -0 -0 -0 -0 -0 -0 -0 -0 -0
-0 -0 -0 -0 -0 -0 -0 -0 -0 -0 -0 -0 -0 -0 -0 -0 -0 -0 -0 -0 -0 -0 -0 -0 -0 -0 -0 -0 -0 -0 -0 -0 -0 -0 -0 -0 -0 -0 -0 -0 -0 -0 -0
-0 -0 -0 -0 -0 -0 -0 -0 -0 -0 -0 -0 -0 -0 -0 -0 -0 -0 -0 -0 -0 -0 -0 -0 -0 -0 -0 -0 -0 -0 -0 -0 -0 -0 -0 -0 -0 -0 -0 -0 -0 -0 -0
-0 -0 -0 -0 -0 -0 -0 -0 -0 -0 -0 -0 -0 -0 -0 -0 -0 -0 -0 -0 -0 -0 -0 -0 -0 -0 -0 -0 -0 -0 -0 -0 -0 -0 -0 -0 -0 -0 -0 -0 -0 -0 -0
-0 -0 -0 -0 -0 -0 -0 -0 -0 -0 -0 -0 -0 -0 -0 -0 -0 -0 -0 -0 -0 -0 -0 -0 -0 -0 -0 -0 -0 -0 -0 -0 -0 -0 -0 -0 -0 -0 -0 -0 -0 -0 -0
-0 -0 -0 -0 -0 -0 -0 -0 -0 -0 -0 -0 -0 -0 -0 -0 -0 -0 -0 -0 -0 -0 -0 -0 -0 -0 -0 -0 -0 -0 -0 -0 -0 -0 -0 -0 -0 -0 -0 -0 -0 -0 -0
-0 -0 -0 -0 -0 -0 -0 -0 -0 -0 -0 -0 -0 -0 -0 -0 -0 -0 -0 -0 -0 -0 -0 -0 -0 -0 -0 -0 -0 -0 -0 -0 -0 -0 -0 -0 -0 -0 -0 -0 -0 -0 -0
-0 -0 -0 -0 -0 -0 -0 -0 -0 -0 -0 -0 -0 -0 -0 -0 -0 -0 -0 -0 -0 -0 -0 -0 -0 -0 -0 -0 -0 -0 -0 -0 -0 -0 -0 -0 -0 -0 -0 -0 -0 -0 -0
-0 -0 -0 -0 -0 -0 -0 -0 -0 -0 -0 -0 -0 -0 -0 -0 -0 -0 -0 -0 -0 -0 -0 -0 -0 -0 -0 -0 -0 -0 -0 -0 -0 -0 -0 -0 -0 -0 -0 -0 -0 -0 -0
-0 -0 -0 -0 -0 -0 -0 -0 -0 -0 -0 -0 -0 -0 -0 -0 -0 -0 -0 -0 -0 -0 -0 -0 -0 -0 -0 -0 -0 -0 -0 -0 -0 -0 -0 -0 -0 -0 -0 -0 -0 -0 -0
-0 -0 -0 -0 -0 -0 -0 -0 -0 -0 -0 -0 -0 -0 -0 -0 -0 -0 -0 -0 -0 -0 -0 -0 -0 -0 -0 -0 -0 -0 -0 -0 -0 -0 -0 -0 -0 -0 -0 -0 -0 -0 -0
-0 -0 -0 -0 -0 -0 -0 -0 -0 -0 -0 -0 -0 -0 -0 -0 -0 -0 -0 -0 -0 -0 -0 -0 -0 -0 -0 -0 -0 -0 -0 -0 -0 -0 -0 -0 -0 -0 -0 -0 -0 -0 -0
-0 -0 -0 -0 -0 -0 -0 -0 -0 -0 -0 -0 -0 -0 -0 -0 -0 -0 -0 -0 -0 -0 -0 -0 -0 -0 -0 -0 -0 -0 -0 -0 -0 -0 -0 -0 -0 -0 -0 -0 -0 -0 -0
-0 -0 -0 -0 -0 -0 -0 -0 -0 -0 -0 -0 -0 -0 -0 -0 -0 -0 -0 -0 -0 -0 -0 -0 -0 -0 -0 -0 -0 -0 -0 -0 -0 -0 -0 -0 -0 -0 -0 -0 -0 -0 -0
Wind_Speed
16 15 14 14 13 12 12 13 14 14 15 15 15 14 13 12 12 12 14 12 12 13 12 13 15 12 8 10 9 8 8 9 11 11 9 8 7 10 8 8 10 10 10
15 14 15 14 14 14 14 14 14 15 15 16 15 16 16 16 14 15 16 15 14 15 14 13 15 10 13 13 10 13 11 11 10 15 9 6 8 10 9 11 12 9 9
12 13 14 14 15 16 16 16 15 15 15 15 16 17 17 18 17 17 18 17 16 16 16 17 17 15 16 13 14 13 11 10 9 10 12 10 9 3 5 5 7 9 7
10 12 14 16 17 17 15 14 16 16 16 16 16 17 17 16 18 18 18 19 19 18 18 19 18 18 20 17 15 16 13 11 11 11 11 12 9 5 6 6 7 7 9
6 11 14 13 13 14 15 16 15 16 17 16 16 16 16 16 15 19 19 19 19 19 19 18 19 21 23 21 14 16 14 13 12 12 13 11 8 4 8 7 10 5 3
9 2 5 8 10 13 14 16 16 17 18 16 18 17 18 15 19 21 20 18 19 19 19 19 18 18 21 20 23 22 17 16 17 13 13 14 16 11 10 9 7 4 4
12 12 10 11 5 11 12 13 17 19 15 18 18 19 20 20 21 22 23 18 17 18 19 18 16 15 15 17 17 16 8 7 10 17 19 18 18 15 13 9 9 6 3
13 13 13 12 10 9 10 12 16 14 16 17 18 19 19 19 19 21 22 21 20 20 19 19 19 18 16 15 11 11 10 4 5 4 7 5 2 1 3 3 5 7 7
15 14 14 13 13 11 11 11 13 13 14 17 17 17 19 20 18 22 19 18 20 22 19 19 19 18 18 20 14 12 7 4 9 14 17 16 17 14 7 8 6 9 3
15 14 13 13 14 13 12 11 10 12 15 13 16 17 18 19 16 19 19 14 17 14 13 5 4 12 15 22 19 15 13 9 9 9 9 13 15 17 17 10 4 7 6
13 12 13 13 13 13 13 10 10 9 11 10 10 5 6 8 6 9 12 14 13 11 8 2 2 9 15 15 11 7 10 14 12 10 9 9 10 12 11 11 10 6 5
10 11 12 12 11 11 12 12 12 10 8 8 9 9 9 11 19 14 11 1 4 6 6 7 9 19 21 21 16 24 24 16 10 10 10 8 8 8 8 9 9 9 8
11 11 11 12 14 14 13 13 11 11 8 7 7 8 8 9 10 22 22 21 18 15 12 21 26 27 27 22 24 21 15 9 10 10 9 9 7 6 9 7 7 8 9
9 10 9 10 11 14 10 11 11 10 8 7 7 7 7 8 8 8 8 12 22 19 14 17 21 22 21 15 13 14 11 9 8 8 9 8 7 7 8 6 5 5 4
8 8 7 7 9 10 14 14 12 15 14 8 8 7 8 9 10 12 10 7 10 11 12 11 9 11 12 11 10 10 8 9 9 8 7 9 6 8 7 5 5 4 4
9 8 7 7 7 7 8 11 29 29 30 28 21 12 11 20 22 26 21 19 22 16 12 10 10 8 10 10 9 9 8 9 8 8 7 7 6 6 5 6 6 5 5
9 8 7 9 7 8 7 7 8 14 30 35 31 28 28 25 27 27 26 25 23 18 11 11 10 7 8 9 9 8 8 7 8 7 6 6 6 6 6 6 5 5 4
10 15 9 8 7 7 7 7 8 8 10 10 20 23 28 29 29 26 22 20 12 15 9 9 11 9 8 7 8 6 7 7 7 7 7 6 5 5 6 6 5 3 4
9 8 7 7 8 8 8 8 8 9 9 9 8 11 15 24 27 28 24 11 10 11 8 10 9 8 8 8 7 7 7 7 6 6 5 5 4 5 5 4 4 6 5
9 12 9 7 7 8 7 8 8 9 9 9 9 9 8 10 12 11 11 10 10 8 8 9 8 8 7 6 6 6 6 6 5 5 3 4 2 4 4 5 5 4 3
5 7 9 8 7 7 7 7 7 8 8 9 9 10 14 10 9 9 8 9 8 8 8 7 7 7 7 6 6 6 6 4 4 2 3 5 6 4 3 3 3 3 4
6 7 7 8 7 7 7 7 7 7 8 8 7 9 12 9 8 8 8 7 6 7 6 6 7 7 6 5 5 5 5 5 4 4 4 4 4 4 3 2 3 3 3
7 7 7 7 7 8 8 7 7 7 7 7 7 7 7 7 7 7 7 6 6 6 5 6 5 5 5 4 5 4 5 3 1 1 2 3 3 4 3 3 2 2 2
7 7 7 7 7 7 7 6 7 8 7 6 6 6 5 5 5 5 4 2 3 4 4 3 3 5 4 4 4 3 3 2 2 2 4 3 3 3 2 2 2 3 2
7 7 7 6 6 5 6 7 6 6 6 5 5 4 5 4 6 5 5 5 6 5 5 4 3 5 7 7 5 6 6 6 4 3 2 3 3 4 2 1 2 2 2
7 6 5 5 5 4 4 5 4 4 4 3 4 3 3 3 3 3 3 3 3 3 4 3 4 4 3 2 2 2 3 4 4 5 2 2 3 3 3 2 3 2 4
Wind_Direction
183 181 184 189 189 190 196 196 199 199 203 208 205 204 206 205 202 201 211 208 205 214 215 208 214 211 217 205 215 215 215 213 232 247 235 229 211 222 233 227 239 234 237
185 188 193 191 199 199 201 203 203 203 204 206 208 210 209 211 208 213 216 215 211 216 213 215 216 210 221 221 218 223 221 218 221 239 242 225 213 219 224 238 236 229 231
185 188 195 197 198 207 207 206 206 209 208 207 207 210 214 215 214 216 218 219 220 221 219 221 223 217 224 223 225 228 229 228 220 231 242 245 241 173 224 227 218 229 225
191 203 200 202 205 206 202 197 200 203 207 209 210 211 210 214 218 218 219 224 226 226 224 225 222 221 225 224 225 225 227 227 228 232 241 246 237 201 222 217 230 223 233
199 210 217 218 212 213 217 210 203 203 209 211 209 214 214 215 214 216 219 221 226 229 230 230 228 225 225 223 220 228 229 232 236 239 242 242 223 185 209 215 239 227 211
8 260 220 231 236 230 225 214 214 219 217 210 215 213 215 218 215 208 211 218 222 227 231 233 234 228 233 222 221 230 220 223 235 238 247 248 241 225 225 214 203 156 225
23 14 18 14 307 239 233 224 223 223 221 224 221 218 221 222 213 206 205 219 221 226 228 230 233 234 226 231 225 226 202 204 229 238 241 242 245 232 216 199 194 191 164
21 15 7 358 348 342 331 250 234 228 222 221 228 226 224 229 211 205 201 216 226 228 226 226 227 231 226 218 208 203 211 193 226 235 247 256 169 155 137 151 141 97 84
15 7 360 352 342 338 340 328 316 248 231 225 225 224 227 233 211 204 197 217 223 227 228 226 226 229 224 198 189 184 138 101 87 100 97 89 81 76 108 118 127 137 102
11 6 3 0 347 343 331 323 326 314 268 238 233 227 227 233 225 213 202 218 223 227 226 211 252 249 225 189 202 186 171 149 121 104 75 61 57 61 59 61 87 114 112
3 8 11 11 0 353 336 335 325 333 326 284 248 46 43 18 24 1 242 213 219 219 209 147 57 120 114 101 91 127 135 124 109 94 74 65 70 57 54 34 54 63 92
10 16 14 12 6 2 359 350 345 351 12 19 38 38 26 21 20 28 31 91 65 119 95 86 85 91 90 90 91 113 120 114 109 101 96 87 82 59 67 65 36 59 55
19 26 22 25 21 16 14 9 3 355 15 30 51 53 44 31 30 35 59 68 73 94 98 91 87 84 82 75 78 74 79 68 92 92 91 86 74 63 85 70 74 58 54
31 30 29 36 36 35 30 29 26 18 12 25 43 60 60 61 48 18 40 65 72 81 71 82 95 90 73 63 67 51 75 56 70 74 87 78 83 67 62 67 60 60 73
46 38 39 42 43 46 48 40 42 41 41 32 26 50 72 67 67 66 50 74 82 85 83 77 61 81 83 82 69 67 64 85 78 74 75 73 59 72 63 58 71 65 64
50 42 36 41 41 34 48 56 51 48 47 49 47 49 69 85 91 85 78 66 79 70 81 70 72 40 80 78 76 87 78 58 68 71 79 85 82 87 84 68 62 60 58
45 46 48 46 46 42 34 34 50 44 54 45 45 48 55 63 64 71 73 61 59 76 69 83 63 64 55 69 66 63 75 71 79 76 66 74 78 75 76 71 55 52 52
48 44 43 40 29 40 37 38 38 42 54 46 38 43 50 54 57 53 58 63 53 44 43 67 77 69 55 51 66 58 58 61 66 71 64 61 61 71 70 69 65 66 51
45 46 47 50 45 39 42 45 49 45 49 54 40 36 35 51 54 52 51 55 55 64 46 43 51 63 66 66 62 60 60 59 56 61 60 69 62 71 74 76 70 58 52
42 45 49 53 50 50 44 50 52 48 49 46 45 32 32 45 45 42 39 44 52 53 49 52 48 48 52 62 66 71 68 62 67 70 61 63 51 67 63 59 46 44 34
41 48 56 56 51 59 60 53 59 65 61 55 48 40 49 58 53 49 45 42 46 46 50 54 53 47 43 46 54 63 69 60 55 66 64 53 44 47 36 57 50 36 33
33 45 50 58 54 55 64 60 58 61 63 64 57 47 47 55 57 58 51 43 43 53 50 52 54 50 40 38 50 63 67 58 32 34 41 47 48 47 37 39 34 33 21
43 44 46 49 55 55 54 57 57 58 60 56 58 54 49 51 51 53 51 38 46 50 45 55 57 54 41 37 41 54 69 64 85 137 73 51 48 46 31 39 22 6 25
46 50 54 53 51 54 54 48 51 51 54 59 60 65 68 66 59 48 34 27 45 38 42 49 56 64 78 61 46 50 70 55 37 61 90 77 54 27 34 19 5 357 317
44 50 54 50 53 54 62 58 51 47 47 44 43 50 60 46 47 34 23 27 35 36 25 16 24 60 72 68 57 39 25 39 45 52 63 85 77 40 28 32 13 309 301
47 48 48 49 53 48 55 68 58 47 48 38 64 53 63 64 52 51 33 37 25 18 10 18 51 96 85 93 97 99 66 42 18 9 34 46 45 12 19 337 324 307 297